Location: Mount Kobau Star Party
(49.1167°N, 119.7333°W)
Time: 11:11:52
(UTC-07:00)

ARIANE 6 FM1 Upper Stage - Pass Details

Date: 12 April 2026
Orbit: 526 x 601 km, 62.0° (Epoch: 18 May)

Event Time Altitude Azimuth Distance (km) Brightness Sun altitude
Rises 22:33:55 0° 277° (W) 2,707 6.8 -23.6°
Reaches altitude 10° 22:36:44 10° 297° (WNW) 1,802 6.1 -23.9°
Maximum altitude 22:39:32 18° 340° (NNW) 1,370 5.4 -24.2°
Drops below altitude 10° 22:42:18 10° 24° (NNE) 1,785 5.5 -24.5°
Sets 22:45:05 0° 45° (NE) 2,670 6.2 -24.8°
